This demonstration page uses our WeatherBlox Daily Observations layout. Learn more.

Left ArrowRight Arrow

Hourly Observations for April 2, 2019

Temp ( °F °C ) Dew Point ( °F °C ) Humidity (%) Winds ( mph kmh ) Pressure ( in mb ) Visibility ( mi km ) Precip ( " mm )
12:15 am 00:15 Mostly Cloudy 36 2 32 0 87 87 ENE 5 7 30.17 1022 10 16 0.00 0.00
12:30 am 00:30 Partly Cloudy 35 1.5 31 -0.3 88 88 NE 5 7 30.17 1022 10 16 0.00 0.00
12:50 am 00:50 Clear 34 1 31 -0.6 89 89 N 3 6 30.18 1022 10 16 0.00 0.00
1:15 am 01:15 Mostly Cloudy 34 0.9 31 -0.7 89 89 N 5 7 30.19 1022 10 16 0.00 0.00
1:35 am 01:35 Mostly Cloudy 32 0 29 -1.4 90 90 N 6 9 30.19 1022 10 16 0.00 0.00
1:55 am 01:55 Cloudy 33 0.3 31 -0.8 92 92 NNW 5 7 30.19 1022 10 16 0.00 0.00
2:15 am 02:15 Cloudy 33 0.8 31 -0.4 92 92 N 6 9 30.18 1022 10 16 0.00 0.00
2:35 am 02:35 Cloudy 34 0.9 31 -0.5 90 90 N 9 15 30.18 1022 10 16 0.00 0.00
2:55 am 02:55 Cloudy 33 0.5 30 -1 90 90 N 9 15 30.18 1022 10 16 0.00 0.00
3:15 am 03:15 Cloudy 33 0.6 31 -0.6 92 92 N 8 13 30.17 1022 10 16 0.00 0.00
3:35 am 03:35 Cloudy 33 0.5 30 -1 90 90 N 6 9 30.17 1022 10 16 0.00 0.00
3:55 am 03:55 Cloudy 33 0.5 30 -1 90 90 Calm 30.18 1022 10 16 0.00 0.00
4:15 am 04:15 Cloudy 33 0.6 30 -1 89 89 NW 6 9 30.18 1022 10 16 0.00 0.00
4:35 am 04:35 Cloudy 33 0.4 30 -1 90 90 WNW 6 9 30.18 1022 10 16 0.00 0.00
4:55 am 04:55 Mostly Cloudy 32 0.1 30 -1.3 90 90 NW 7 11 30.19 1022 10 16 0.00 0.00
5:15 am 05:15 Partly Cloudy 31 -0.3 29 -1.7 90 90 WNW 3 6 30.18 1022 7 11 0.00 0.00
5:35 am 05:35 Clear 30 -1 28 -2.2 92 92 NW 5 7 30.19 1022 7 11 0.00 0.00
5:55 am 05:55 Clear 29 -1.6 27 -2.7 92 92 NW 3 6 30.19 1022 7 11 0.00 0.00
6:15 am 06:15 Clear 30 -1.3 28 -2.5 92 92 NW 7 11 30.19 1022 7 11 0.00 0.00
6:35 am 06:35 Clear 29 -1.7 27 -3 91 91 NW 6 9 30.19 1022 7 11 0.00 0.00
6:55 am 06:55 Clear 29 -1.7 27 -3 91 91 NW 6 9 30.19 1022 7 11 0.00 0.00
7:15 am 07:15 Clear 29 -1.6 27 -2.8 92 92 WNW 7 11 30.20 1023 10 16 0.00 0.00
7:35 am 07:35 Sunny 30 -1.3 27 -2.6 91 91 WNW 7 11 30.21 1023 7 11 0.00 0.00
7:55 am 07:55 Sunny 31 -0.8 28 -2.1 91 91 WNW 8 13 30.21 1023 7 11 0.00 0.00
8:15 am 08:15 Sunny 31 -0.5 29 -1.8 91 91 NW 7 11 30.21 1023 7 11 0.00 0.00
8:35 am 08:35 Sunny 32 0.2 30 -1.1 91 91 NW 7 11 30.22 1023 7 11 0.00 0.00
8:55 am 08:55 Sunny 34 1 31 -0.5 90 90 WNW 10 17 30.21 1023 7 11 0.00 0.00
9:15 am 09:15 Sunny 35 1.5 31 -0.4 87 87 W 12 19 30.20 1023 10 16 0.00 0.00
9:35 am 09:35 Sunny 36 2.3 32 0 85 85 WNW 9 15 30.19 1023 10 16 0.00 0.00
9:55 am 09:55 Sunny 37 2.8 32 0 82 82 WNW 10 17 30.19 1022 10 16 0.00 0.00
10:15 am 10:15 Sunny 39 3.7 33 0.5 80 80 WNW 9 15 30.18 1022 10 16 0.00 0.00
10:35 am 10:35 Sunny 40 4.4 33 0.6 77 77 WNW 8 13 30.17 1022 10 16 0.00 0.00
10:55 am 10:55 Sunny 42 5.6 33 0.8 72 72 W 7 11 30.16 1021 10 16 0.00 0.00
11:15 am 11:15 Sunny 44 6.9 32 0.1 62 62 WNW 7 11 30.15 1021 10 16 0.00 0.00
11:35 am 11:35 Sunny 46 7.7 32 0.1 59 59 NW 3 6 30.14 1021 10 16 0.00 0.00
11:55 am 11:55 Sunny 47 8.6 31 -0.5 53 53 WNW 3 6 30.12 1020 10 16 0.00 0.00
12:15 pm 12:15 Sunny 48 9.1 30 -1.3 48 48 NW 3 6 30.12 1020 10 16 0.00 0.00
12:35 pm 12:35 Sunny 49 9.6 30 -0.9 48 48 NW 3 6 30.11 1020 10 16 0.00 0.00
12:55 pm 12:55 Sunny 51 10.3 31 -0.7 47 47 Calm 30.10 1019 10 16 0.00 0.00
1:15 pm 13:15 Sunny 51 10.8 31 -0.5 46 46 WSW 3 6 30.08 1019 10 16 0.00 0.00
1:35 pm 13:35 Sunny 53 11.8 32 0 45 45 WNW 8 13 30.06 1018 10 16 0.00 0.00
1:55 pm 13:55 Sunny 54 12.4 33 0.4 44 44 WNW 12 19 30.06 1018 10 16 0.00 0.00
2:15 pm 14:15 Sunny 55 12.6 32 -0.1 42 42 W 5 7 30.05 1018 10 16 0.00 0.00
2:35 pm 14:35 Sunny 55 12.9 32 0.2 42 42 NNW 8 13 30.03 1017 10 16 0.00 0.00
2:55 pm 14:55 Sunny 56 13.5 33 0.5 41 41 SW 7 11 30.03 1017 10 16 0.00 0.00
3:15 pm 15:15 Sunny 57 13.7 33 0.5 41 41 W 7 11 30.02 1017 10 16 0.00 0.00
3:35 pm 15:35 Sunny 57 13.9 32 0.1 39 39 WNW 6 9 30.01 1016 10 16 0.00 0.00
3:55 pm 15:55 Sunny 57 14 32 -0.1 38 38 Calm 29.99 1016 10 16 0.00 0.00
4:15 pm 16:15 Partly Cloudy 57 13.7 32 -0.1 39 39 W 7 11 29.99 1015 10 16 0.00 0.00
4:35 pm 16:35 Partly Cloudy 57 14 31 -0.4 37 37 Calm 29.98 1015 10 16 0.00 0.00
4:55 pm 16:55 Sunny 58 14.4 31 -0.5 36 36 WSW 3 6 29.97 1015 10 16 0.00 0.00
5:15 pm 17:15 Partly Cloudy 58 14.5 31 -0.7 35 35 Calm 29.97 1015 10 16 0.00 0.00
5:35 pm 17:35 Sunny 58 14.3 31 -0.7 36 36 Calm 29.97 1015 10 16 0.00 0.00
5:55 pm 17:55 Partly Cloudy 58 14.5 31 -0.4 36 36 Calm 29.96 1015 10 16 0.00 0.00
6:15 pm 18:15 Partly Cloudy 58 14.3 31 -0.8 36 36 Calm 29.96 1015 10 16 0.00 0.00
6:35 pm 18:35 Partly Cloudy 58 14.2 32 -0.2 37 37 Calm 29.97 1015 10 16 0.00 0.00
6:55 pm 18:55 Cloudy 58 14.3 31 -0.6 36 36 Calm 29.97 1015 10 16 0.00 0.00
7:15 pm 19:15 Mostly Cloudy 57 14 33 0.6 40 40 SSE 6 9 29.98 1015 10 16 0.00 0.00
7:35 pm 19:35 Partly Cloudy 56 13.2 34 1.3 45 45 S 7 11 29.99 1016 10 16 0.00 0.00
7:55 pm 19:55 Mostly Cloudy 55 12.7 35 1.5 47 47 S 9 15 30.01 1016 10 16 0.00 0.00
8:15 pm 20:15 Mostly Cloudy 53 11.9 36 2.1 51 51 S 10 17 30.01 1016 10 16 0.00 0.00
8:35 pm 20:35 Partly Cloudy 53 11.4 36 2.2 53 53 S 9 15 30.02 1017 10 16 0.00 0.00
8:55 pm 20:55 Mostly Cloudy 51 10.8 35 1.7 54 54 S 12 19 30.03 1017 10 16 0.00 0.00
9:15 pm 21:15 Cloudy 52 11 35 1.7 53 53 S 10 17 30.03 1017 10 16 0.00 0.00
9:35 pm 21:35 Cloudy 51 10.7 36 2 55 55 S 8 13 30.04 1017 10 16 0.00 0.00
9:55 pm 21:55 Cloudy 51 10.5 36 2.2 57 57 S 8 13 30.05 1017 10 16 0.00 0.00
10:15 pm 22:15 Cloudy 50 10.2 36 2.3 58 58 S 8 13 30.06 1018 10 16 0.00 0.00
10:35 pm 22:35 Cloudy 50 10 36 2.1 58 58 S 7 11 30.06 1018 10 16 0.00 0.00
10:55 pm 22:55 Cloudy 50 10 36 2 58 58 S 7 11 30.06 1018 10 16 0.00 0.00
11:15 pm 23:15 Cloudy 49 9.5 35 1.8 59 59 S 8 13 30.07 1018 10 16 0.00 0.00
11:35 pm 23:35 Cloudy 49 9.6 35 1.6 58 58 S 10 17 30.06 1018 10 16 0.00 0.00
11:55 pm 23:55 Cloudy 48 9.1 35 1.6 60 60 S 10 17 30.07 1018 10 16 0.00 0.00

Powered by AerisWeather